Regional Weather Roundup
Issued by NWS

Home | Current Version | Previous Version | Text Only | Print | Product List | Glossary Off
Versions: 1 2 3 4 5 6 7 8 9 10 11 12 13 14 15 16 17 18 19 20 21 22 23 24 25 26 27 28 29 30 31 32 33 34 35 36 37 38 39 40 41 42 43 44 45 46 47 48 49 50

000
ASUS45 KPSR 242010
RWRAZ

ARIZONA REGIONAL HOURLY WEATHER ROUNDUP
NATIONAL WEATHER SERVICE PHOENIX AZ
100 PM MST WED DEC 24 2014

NOTE: FAIR INDICATES FEW OR NO CLOUDS BELOW 12,000 FEET WITH NO
SIGNIFICANT WEATHER AND/OR OBSTRUCTIONS TO VISIBILITY.

AZZ001>003-036-242100-
NORTHWEST ARIZONA

CITY           SKY/WX    TMP DP  RH WIND       PRES   REMARKS
BULLHEAD CITY  PTSUNNY   55  23  28 SW3       30.07F
KINGMAN        PTSUNNY   54  12  18 SW6       30.04F
$$

AZZ004>008-015-016-018-242100-
NORTH CENTRAL ARIZONA

CITY           SKY/WX    TMP DP  RH WIND       PRES   REMARKS
GRAND CANYON   MOSUNNY   46  12  25 SW10      30.07F
PRESCOTT       SUNNY     49   8  19 CALM      30.07F
FLAGSTAFF      SUNNY     52  12  20 SW9       30.05F
PAYSON         SUNNY     48  12  23 S8        30.10F
PAGE           SUNNY     41  14  33 N6        30.06F
$$

AZZ009>014-017-242100-
NORTHEAST ARIZONA

CITY           SKY/WX    TMP DP  RH WIND       PRES   REMARKS
WINSLOW        SUNNY     44   8  23 E7        30.07F
SAINT JOHNS    SUNNY     40  11  30 N3        30.08F
WINDOW ROCK    SUNNY     43  14  31 S6        30.05F
SHOW LOW       SUNNY     41   5  22 CALM      30.10F
$$

AZZ023-242100-
GREATER PHOENIX AREA

CITY           SKY/WX    TMP DP  RH WIND       PRES   REMARKS
PHOENIX        MOSUNNY   63  13  14 CALM      30.05F
BUCKEYE          N/A     59  14  17 SE12      30.06F
GLENDALE       MOSUNNY   63  16  16 SE5       30.08F
LUKE AFB       SUNNY     61  16  17 CALM      30.04F
DEER VALLEY    SUNNY     61   7  11 VRB6      30.05F
SCOTTSDALE     SUNNY     62  10  13 CALM      30.06F
MESA-FALCON    MOSUNNY   59  16  18 VRB6      30.06F
MESA-GATEWAY   MOSUNNY   57  14  18 CALM      30.08F
CHANDLER       MOSUNNY   59  12  15 CALM      30.06F
$$

AZZ027-028-242100-
SOUTHWEST MARICOPA COUNTY AND PINAL COUNTY

CITY           SKY/WX    TMP DP  RH WIND       PRES   REMARKS
CASA GRANDE    SUNNY     61  18  18 CALM      30.05F
GILA BEND      FAIR      64  12  13 E13G21    30.05F
$$

AZZ503-504-507>509-242100-
SOUTHEAST ARIZONA

CITY           SKY/WX    TMP DP  RH WIND       PRES   REMARKS
TUCSON         SUNNY     61  16  17 SE7       30.04F
DAVIS-MONTHAN  SUNNY     61   9  13 E12       30.01F
RYAN FIELD       N/A     63  23  22 E12       30.05F
NOGALES        SUNNY     61  10  13 VRB3      30.04F
SIERRA VISTA   MOSUNNY   54   3  13 E6        30.08F
DOUGLAS        SUNNY     52   9  17 SW9       30.10F
SAFFORD        SUNNY     52  10  18 E9        30.10F
$$

AZZ020-021-025-026-031-242100-
SOUTHWEST ARIZONA

CITY           SKY/WX    TMP DP  RH WIND       PRES   REMARKS
YUMA           PTSUNNY  N/A N/A N/A E7        30.04F
$$

CAZ031-033-041-043-047-048-061-242100-
SOUTHERN CALIFORNIA

CITY           SKY/WX    TMP DP  RH WIND       PRES   REMARKS
DOWNTOWN L.A.  SUNNY     75  34  22 CALM      30.00F
L.A. AIRPORT   PTSUNNY   71  35  26 CALM      30.00F
SAN DIEGO      PTSUNNY   73  35  25 NW5       30.02F
BURBANK        MOSUNNY   70  41  34 CALM      30.01F
ONTARIO        PTSUNNY   70  29  21 S3        30.02F
RIVERSIDE      PTSUNNY   69  33  26 CALM      30.03F
PALM SPRINGS   PTSUNNY   67  24  19 E6        30.06F
EL CENTRO NAS  PTSUNNY   68  20  16 SE8       30.04F
IMPERIAL       SUNNY     67  24  19 SE6       30.04F
BLYTHE         SUNNY     64  22  20 NE5       30.06F
NEEDLES        MOSUNNY   58  17  20 NE3       30.05F
$$

NVZ020-UTZ003-242100-
SOUTHERN NEVADA-UTAH

CITY           SKY/WX    TMP DP  RH WIND       PRES   REMARKS
LAS VEGAS      CLOUDY    51  18  27 S3        30.00F
SALT LAKE CITY PTSUNNY   39  19  44 SE9       29.87F WCI  33
$$

NMZ009-TXZ055-242100-
NEW MEXICO-WEST TEXAS

CITY           SKY/WX    TMP DP  RH WIND       PRES   REMARKS
ALBUQUERQUE    MOSUNNY   37   8  30 SW9       30.09F WCI  30
EL PASO        SUNNY     48  14  25 SW13      30.11F
$$


........................KEY........................
SKY/WX - SKY CONDITION/WEATHER
TMP    - TEMPERATURE IN FAHRENHEIT
DP     - DEW POINT IN FAHRENHEIT
RH     - RELATIVE HUMIDITY IN PERCENT
WIND   - DIRECTION AND SPEED IN MILES PER HOUR (MPH)
VRB    - VARIABLE WIND DIRECTION
PRES   - MEAN SEA LEVEL PRESSURE IN INCHES OF MERCURY
         F - FALLING PRESSURE   R - RISING PRESSURE
         S - STEADY PRESSURE
VSB    - VISIBILITY IN MILES
HX     - HEAT INDEX IN FAHRENHEIT
WCI    - WIND CHILL INDEX IN FAHRENHEIT
TC     - TEMPERATURE IN CELSIUS WHICH IS ALSO KNOWN AS
         TEMPERATURE IN CENTIGRADE
AFB    - AIR FORCE BASE
         LUKE AFB IS LUKE AIR FORCE BASE
         DAVIS-MONTHAN IS DAVIS-MONTHAN AIR FORCE BASE
NAS    - NAVAL AIR STATION
         EL CENTRO NAS IS EL CENTRO NAVAL AIR STATION
N/A    - NOT AVAILABLE


USA.gov is the U.S. government's official web portal to all federal, state and local government web resources and services.